Weather History for Port Hedland, WE

Change the Weather History Date:

Monday, October 22, 2012

  Actual Average Record
Temperature  
Mean Temperature 80 °F -  
Max Temperature 91 °F 96 °F 114 °F (2002)
Min Temperature 70 °F 69 °F 62 °F (2001)
Cooling Degree Days 16    
Growing Degree Days 30 (Base 50)    
Moisture  
Dew Point 71 °F    
Average Humidity 73    
Maximum Humidity 94    
Minimum Humidity 38    
Precipitation  
Precipitation 0.00 in 0.00 in - ()
Sea Level Pressure  
Sea Level Pressure 29.73 in    
Wind  
Wind Speed 7 mph ()    
Max Wind Speed 13 mph    
Max Gust Speed -    
Visibility 6.7 miles    
Events      
Averages and records for this station are not official NWS values.
T = Trace of Precipitation, MM = Missing Value Source: Averaged Metar Reports

Daily Weather History Graph

Daily Weather History Graph

Search for Another Location

Airport:

Trip Planner

Search our weather history database for the weather conditions in past years. The results will help you decide how hot, cold, wet, or windy it might be!

Date:

Astronomy

Oct. 22, 2012 Rise Set
Actual Time 5:29 AM AWST 6:10 PM AWST
Civil Twilight 5:07 AM AWST 6:33 PM AWST
Nautical Twilight 4:40 AM AWST 6:59 PM AWST
Astronomical Twilight 4:13 AM AWST 7:26 PM AWST
Moon 11:39 AM AWST (10/22) 12:03 AM AWST (10/22)
Length of Visible Light 13h 26m
Length of Day
12h 40m
Waxing Crescent, 50% of the Moon is Illuminated
Oct 22
Waxing Crescent
Oct 30
Full
Nov 7
Last Quarter
Nov 14
New
Nov 20
First Quarter

Hourly Weather History & Observations

Time (AWST) Temp. Heat Index Dew Point Humidity Pressure Visibility Wind Dir Wind Speed Gust Speed Precip Events Conditions
12:00 AM 74 °F - 69 °F 79% 29.75 in - East 10.4 mph - -  
12:00 AM 73.4 °F - 68.0 °F 83% 29.74 in 6.2 mi East 10.4 mph - N/A   Unknown
12:30 AM 77.0 °F - 71.6 °F 83% 29.74 in 6.2 mi East 10.4 mph - N/A   Unknown
1:00 AM 77.0 °F - 73.4 °F 89% 29.71 in 6.2 mi East 9.2 mph - N/A   Unknown
1:30 AM 77.0 °F - 75.2 °F 94% 29.71 in 6.2 mi ENE 9.2 mph - N/A   Unknown
2:00 AM 77 °F - 74 °F 89% 29.72 in - ENE 8.1 mph - -  
2:00 AM 77.0 °F - 75.2 °F 94% 29.71 in 6.2 mi ENE 8.1 mph - N/A   Unknown
2:30 AM 77.0 °F - 75.2 °F 94% 29.71 in 6.2 mi NNE 4.6 mph - N/A   Unknown
3:00 AM 75 °F - 73 °F 93% 29.71 in - Calm Calm - -  
3:00 AM 75.2 °F - 73.4 °F 94% 29.71 in 6.2 mi Calm Calm - N/A   Unknown
3:30 AM 75.2 °F - 73.4 °F 94% 29.71 in 6.2 mi NNE 4.6 mph - N/A   Unknown
4:00 AM 73.4 °F - 71.6 °F 94% 29.71 in 6.2 mi ENE 2.3 mph - N/A   Unknown
4:30 AM 73.4 °F - 71.6 °F 94% 29.71 in 6.2 mi Calm Calm - N/A   Unknown
5:00 AM 73 °F - 71 °F 93% 29.73 in - ENE 1.2 mph - -  
5:00 AM 73.4 °F - 71.6 °F 94% 29.71 in 6.2 mi ENE 1.2 mph - N/A   Unknown
5:30 AM 71.6 °F - 69.8 °F 94% 29.74 in 6.2 mi NNE 5.8 mph - N/A   Unknown
6:00 AM 71.6 °F - 69.8 °F 94% 29.74 in - NNW 6.9 mph - N/A   Clear
6:30 AM 73.4 °F - 71.6 °F 94% 29.74 in - NNW 5.8 mph - N/A   Clear
7:00 AM 77.0 °F - 73.4 °F 89% 29.74 in - North 4.6 mph - N/A   Clear
7:30 AM 80.6 °F 86.2 °F 75.2 °F 84% 29.74 in - WNW 5.8 mph - N/A   Clear
8:00 AM 83 °F - 73 °F 65% 29.78 in - NNW 4.6 mph - -  
8:00 AM 82.4 °F 88.2 °F 73.4 °F 74% 29.77 in 6.2 mi NNW 4.6 mph - N/A   Unknown
8:30 AM 86.0 °F 89.4 °F 68.0 °F 55% 29.77 in - West 1.2 mph - N/A   Clear
9:00 AM 85 °F - 72 °F 57% 29.77 in 12 mi NNE 5.8 mph - -   Haze
9:00 AM 86.0 °F 91.8 °F 71.6 °F 62% 29.77 in - NNE 5.8 mph - N/A   Clear
9:30 AM 86.0 °F 93.4 °F 73.4 °F 66% 29.77 in - NNE 8.1 mph - N/A   Clear
10:00 AM 86.0 °F 91.8 °F 71.6 °F 62% 29.77 in - NNE 8.1 mph - N/A   Clear
10:30 AM 87.8 °F 93.8 °F 71.6 °F 58% 29.74 in - NNE 8.1 mph - N/A   Clear
11:00 AM 88 °F - 71 °F 47% 29.75 in - North 9.2 mph - -  
11:00 AM 87.8 °F 92.6 °F 69.8 °F 55% 29.74 in - North 9.2 mph - N/A   Clear
11:30 AM 89.6 °F 93.4 °F 68.0 °F 49% 29.74 in - North 9.2 mph - N/A   Clear
12:00 PM 88 °F - 68 °F 43%  in 16 mi NNW 5.8 mph - -   Partly Cloudy
12:00 PM 87.8 °F 91.4 °F 68.0 °F 52% 29.71 in - NNW 5.8 mph - N/A   Clear
12:30 PM 87.8 °F 89.4 °F 64.4 °F 46% 29.71 in - North 6.9 mph - N/A   Clear
1:00 PM 89.6 °F 92.2 °F 66.2 °F 46% 29.71 in - North 8.1 mph - N/A   Clear
1:30 PM 91.4 °F 94.0 °F 66.2 °F 43% 29.71 in - North 6.9 mph - N/A   Clear
2:00 PM 89 °F - 67 °F 38% 29.70 in - North 9.2 mph - -  
2:00 PM 89.6 °F 92.2 °F 66.2 °F 46% 29.68 in - North 9.2 mph - N/A   Clear
2:30 PM 89.6 °F 93.4 °F 68.0 °F 49% 29.68 in - NNW 10.4 mph - N/A   Clear
3:00 PM 87.8 °F 90.4 °F 66.2 °F 49% 29.68 in - NNW 9.2 mph - N/A   Clear
3:30 PM 87.8 °F 89.4 °F 64.4 °F 46% 29.68 in 6.2 mi NNW 9.2 mph - N/A   Unknown
4:00 PM 86.0 °F 89.4 °F 68.0 °F 55% 29.68 in 6.2 mi NNW 10.4 mph - N/A   Unknown
4:30 PM 86.0 °F 89.4 °F 68.0 °F 55% 29.68 in 6.2 mi North 9.2 mph - N/A   Unknown
5:00 PM 84 °F - 70 °F 55% 29.71 in - NNW 9.2 mph - -  
5:00 PM 84.2 °F 88.4 °F 69.8 °F 62% 29.71 in 6.2 mi NNW 9.2 mph - N/A   Unknown
5:30 PM 82.4 °F 87.2 °F 71.6 °F 70% 29.71 in 6.2 mi NW 12.7 mph - N/A   Unknown
6:00 PM 80.6 °F 84.6 °F 71.6 °F 74% 29.71 in 6.2 mi NW 10.4 mph - N/A   Unknown
6:30 PM 78.8 °F - 71.6 °F 78% 29.71 in 6.2 mi WNW 9.2 mph - N/A   Unknown
7:00 PM 78.8 °F - 71.6 °F 78% 29.74 in 6.2 mi WNW 9.2 mph - N/A   Unknown
7:30 PM 77.0 °F - 71.6 °F 83% 29.74 in 6.2 mi NW 5.8 mph - N/A   Unknown
8:00 PM 77 °F - 73 °F 83% 29.76 in - NNW 5.8 mph - -  
8:00 PM 77.0 °F - 73.4 °F 89% 29.74 in 6.2 mi NNW 5.8 mph - N/A   Unknown
9:00 PM 77 °F - 72 °F 82% 29.75 in - North 5.8 mph - -  
9:00 PM 77.0 °F - 73.4 °F 89% 29.74 in 6.2 mi North 5.8 mph - N/A   Unknown
9:30 PM 77.0 °F - 71.6 °F 83% 29.74 in 6.2 mi North 5.8 mph - N/A   Unknown
10:00 PM 77.0 °F - 71.6 °F 83% 29.74 in 6.2 mi NNE 6.9 mph - N/A   Unknown
10:30 PM 77.0 °F - 71.6 °F 83% 29.74 in 6.2 mi North 9.2 mph - N/A   Unknown
11:00 PM 75 °F - 72 °F 87% 29.74 in - NNW 10.4 mph - -  
11:00 PM 75.2 °F - 71.6 °F 89% 29.74 in 6.2 mi NNW 10.4 mph - N/A   Unknown
11:30 PM 75.2 °F - 71.6 °F 89% 29.71 in 6.2 mi NNW 10.4 mph - N/A   Unknown